Year,Month,Day,Hour,Minute,Value (Times are PST for temperature in C)
2014,12,03,00,00,1.00
2014,12,03,00,01,1.00
2014,12,03,00,02,1.10
2014,12,03,00,03,1.10
2014,12,03,00,04,1.10
2014,12,03,00,05,1.00
2014,12,03,00,06,1.00
2014,12,03,00,07,0.90
2014,12,03,00,08,0.90
2014,12,03,00,09,0.90
2014,12,03,00,10,0.90
2014,12,03,00,11,0.80
2014,12,03,00,12,0.90
2014,12,03,00,13,0.90
2014,12,03,00,14,0.90
2014,12,03,00,15,1.00
2014,12,03,00,16,1.00
2014,12,03,00,17,1.00
2014,12,03,00,18,1.00
2014,12,03,00,19,1.10
2014,12,03,00,20,1.10
2014,12,03,00,21,1.10
2014,12,03,00,22,1.10
2014,12,03,00,23,1.10
2014,12,03,00,24,1.10
2014,12,03,00,25,1.10
2014,12,03,00,26,1.10
2014,12,03,00,27,1.00
2014,12,03,00,28,1.00
2014,12,03,00,29,0.90
2014,12,03,00,30,0.90
2014,12,03,00,31,0.90
2014,12,03,00,32,0.90
2014,12,03,00,33,0.80
2014,12,03,00,34,0.80
2014,12,03,00,35,0.80
2014,12,03,00,36,0.80
2014,12,03,00,37,0.80
2014,12,03,00,38,0.80
2014,12,03,00,39,0.80
2014,12,03,00,40,0.70
2014,12,03,00,41,0.70
2014,12,03,00,42,0.70
2014,12,03,00,43,0.70
2014,12,03,00,44,0.70
2014,12,03,00,45,0.70
2014,12,03,00,46,0.70
2014,12,03,00,47,0.70
2014,12,03,00,48,0.70
2014,12,03,00,49,0.70
2014,12,03,00,50,0.70
2014,12,03,00,51,0.70
2014,12,03,00,52,0.70
2014,12,03,00,53,0.70
2014,12,03,00,54,0.70
2014,12,03,00,55,0.70
2014,12,03,00,56,0.80
2014,12,03,00,57,0.80
2014,12,03,00,58,0.80
2014,12,03,00,59,0.80
2014,12,03,01,00,0.80
2014,12,03,01,01,0.80
2014,12,03,01,02,0.80
2014,12,03,01,03,0.70
2014,12,03,01,04,0.70
2014,12,03,01,05,0.70
2014,12,03,01,06,0.70
2014,12,03,01,07,0.70
2014,12,03,01,08,0.70
2014,12,03,01,09,0.70
2014,12,03,01,10,0.80
2014,12,03,01,11,0.70
2014,12,03,01,12,0.70
2014,12,03,01,13,0.70
2014,12,03,01,14,0.80
2014,12,03,01,15,0.80
2014,12,03,01,16,0.80
2014,12,03,01,17,0.80
2014,12,03,01,18,0.80
2014,12,03,01,19,0.80
2014,12,03,01,20,0.80
2014,12,03,01,21,0.80
2014,12,03,01,22,0.80
2014,12,03,01,23,0.80
2014,12,03,01,24,0.80
2014,12,03,01,25,0.80
2014,12,03,01,26,0.90
2014,12,03,01,27,0.90
2014,12,03,01,28,0.90
2014,12,03,01,29,0.90
2014,12,03,01,30,0.90
2014,12,03,01,31,0.90
2014,12,03,01,32,0.90
2014,12,03,01,33,1.00
2014,12,03,01,34,1.00
2014,12,03,01,35,1.00
2014,12,03,01,36,1.00
2014,12,03,01,37,1.00
2014,12,03,01,38,0.90
2014,12,03,01,39,0.90
2014,12,03,01,40,0.90
2014,12,03,01,41,0.90
2014,12,03,01,42,0.90
2014,12,03,01,43,0.90
2014,12,03,01,44,0.90
2014,12,03,01,45,0.90
2014,12,03,01,46,0.90
2014,12,03,01,47,0.90
2014,12,03,01,48,0.90
2014,12,03,01,49,0.90
2014,12,03,01,50,0.90
2014,12,03,01,51,0.90
2014,12,03,01,52,0.90
2014,12,03,01,53,0.90
2014,12,03,01,54,0.90
2014,12,03,01,55,0.90
2014,12,03,01,56,0.90
2014,12,03,01,57,0.90
2014,12,03,01,58,0.90
2014,12,03,01,59,0.90
2014,12,03,02,00,0.90
2014,12,03,02,01,0.90
2014,12,03,02,02,0.90
2014,12,03,02,03,0.80
2014,12,03,02,04,0.80
2014,12,03,02,05,0.80
2014,12,03,02,06,0.80
2014,12,03,02,07,0.80
2014,12,03,02,08,0.80
2014,12,03,02,09,0.80
2014,12,03,02,10,0.80
2014,12,03,02,11,0.80
2014,12,03,02,12,0.80
2014,12,03,02,13,0.80
2014,12,03,02,14,0.80
2014,12,03,02,15,0.80
2014,12,03,02,16,0.80
2014,12,03,02,17,0.80
2014,12,03,02,18,0.80
2014,12,03,02,19,0.80
2014,12,03,02,20,0.80
2014,12,03,02,21,0.80
2014,12,03,02,22,0.80
2014,12,03,02,23,0.90
2014,12,03,02,24,0.90
2014,12,03,02,25,0.90
2014,12,03,02,26,0.90
2014,12,03,02,27,0.90
2014,12,03,02,28,0.90
2014,12,03,02,29,0.90
2014,12,03,02,30,0.90
2014,12,03,02,31,0.90
2014,12,03,02,32,0.90
2014,12,03,02,33,0.90
2014,12,03,02,34,0.90
2014,12,03,02,35,0.90
2014,12,03,02,36,0.90
2014,12,03,02,37,0.90
2014,12,03,02,38,0.90
2014,12,03,02,39,0.80
2014,12,03,02,40,0.80
2014,12,03,02,41,0.80
2014,12,03,02,42,0.80
2014,12,03,02,43,0.80
2014,12,03,02,44,0.80
2014,12,03,02,45,0.70
2014,12,03,02,46,0.70
2014,12,03,02,47,0.70
2014,12,03,02,48,0.80
2014,12,03,02,49,0.80
2014,12,03,02,50,0.80
2014,12,03,02,51,0.80
2014,12,03,02,52,0.80
2014,12,03,02,53,0.80
2014,12,03,02,54,0.80
2014,12,03,02,55,0.90
2014,12,03,02,56,0.90
2014,12,03,02,57,0.90
2014,12,03,02,58,0.90
2014,12,03,02,59,0.90
2014,12,03,03,00,0.90
2014,12,03,03,01,0.90
2014,12,03,03,02,0.90
2014,12,03,03,03,0.90
2014,12,03,03,04,0.90
2014,12,03,03,05,0.90
2014,12,03,03,06,0.90
2014,12,03,03,07,1.00
2014,12,03,03,08,1.00
2014,12,03,03,09,1.00
2014,12,03,03,10,1.10
2014,12,03,03,11,1.10
2014,12,03,03,12,1.10
2014,12,03,03,13,1.20
2014,12,03,03,14,1.20
2014,12,03,03,15,1.20
2014,12,03,03,16,1.20
2014,12,03,03,17,1.20
2014,12,03,03,18,1.20
2014,12,03,03,19,1.20
2014,12,03,03,20,1.30
2014,12,03,03,21,1.30
2014,12,03,03,22,1.30
2014,12,03,03,23,1.30
2014,12,03,03,24,1.30
2014,12,03,03,25,1.30
2014,12,03,03,26,1.40
2014,12,03,03,27,1.40
2014,12,03,03,28,1.40
2014,12,03,03,29,1.40
2014,12,03,03,30,1.40
2014,12,03,03,31,1.40
2014,12,03,03,32,1.40
2014,12,03,03,33,1.40
2014,12,03,03,34,1.40
2014,12,03,03,35,1.40
2014,12,03,03,36,1.40
2014,12,03,03,37,1.40
2014,12,03,03,38,1.40
2014,12,03,03,39,1.40
2014,12,03,03,40,1.40
2014,12,03,03,41,1.40
2014,12,03,03,42,1.50
2014,12,03,03,43,1.50
2014,12,03,03,44,1.50
2014,12,03,03,45,1.60
2014,12,03,03,46,1.50
2014,12,03,03,47,1.50
2014,12,03,03,48,1.60
2014,12,03,03,49,1.60
2014,12,03,03,50,1.60
2014,12,03,03,51,1.60
2014,12,03,03,52,1.60
2014,12,03,03,53,1.60
2014,12,03,03,54,1.60
2014,12,03,03,55,1.60
2014,12,03,03,56,1.60
2014,12,03,03,57,1.70
2014,12,03,03,58,1.70
2014,12,03,03,59,1.70
2014,12,03,04,00,1.70
2014,12,03,04,01,1.70
2014,12,03,04,02,1.70
2014,12,03,04,03,1.60
2014,12,03,04,04,1.60
2014,12,03,04,05,1.50
2014,12,03,04,06,1.50
2014,12,03,04,07,1.40
2014,12,03,04,08,1.40
2014,12,03,04,09,1.40
2014,12,03,04,10,1.40
2014,12,03,04,11,1.40
2014,12,03,04,12,1.40
2014,12,03,04,13,1.40
2014,12,03,04,14,1.40
2014,12,03,04,15,1.40
2014,12,03,04,16,1.40
2014,12,03,04,17,1.40
2014,12,03,04,18,1.40
2014,12,03,04,19,1.40
2014,12,03,04,20,1.40
2014,12,03,04,21,1.30
2014,12,03,04,22,1.30
2014,12,03,04,23,1.30
2014,12,03,04,24,1.30
2014,12,03,04,25,1.30
2014,12,03,04,26,1.30
2014,12,03,04,27,1.30
2014,12,03,04,28,1.30
2014,12,03,04,29,1.30
2014,12,03,04,30,1.30
2014,12,03,04,31,1.20
2014,12,03,04,32,1.20
2014,12,03,04,33,1.20
2014,12,03,04,34,1.20
2014,12,03,04,35,1.20
2014,12,03,04,36,1.20
2014,12,03,04,37,1.20
2014,12,03,04,38,1.10
2014,12,03,04,39,1.10
2014,12,03,04,40,1.10
2014,12,03,04,41,1.10
2014,12,03,04,42,1.10
2014,12,03,04,43,1.10
2014,12,03,04,44,1.10
2014,12,03,04,45,1.20
2014,12,03,04,46,1.20
2014,12,03,04,47,1.20
2014,12,03,04,48,1.20
2014,12,03,04,49,1.20
2014,12,03,04,50,1.20
2014,12,03,04,51,1.20
2014,12,03,04,52,1.20
2014,12,03,04,53,1.20
2014,12,03,04,54,1.20
2014,12,03,04,55,1.20
2014,12,03,04,56,1.20
2014,12,03,04,57,1.20
2014,12,03,04,58,1.20
2014,12,03,04,59,1.20
2014,12,03,05,00,1.30
2014,12,03,05,01,1.30
2014,12,03,05,02,1.30
2014,12,03,05,03,1.30
2014,12,03,05,04,1.20
2014,12,03,05,05,1.30
2014,12,03,05,06,1.30
2014,12,03,05,07,1.30
2014,12,03,05,08,1.30
2014,12,03,05,09,1.30
2014,12,03,05,10,1.40
2014,12,03,05,11,1.40
2014,12,03,05,12,1.40
2014,12,03,05,13,1.30
2014,12,03,05,14,1.30
2014,12,03,05,15,1.30
2014,12,03,05,16,1.30
2014,12,03,05,17,1.30
2014,12,03,05,18,1.30
2014,12,03,05,19,1.30
2014,12,03,05,20,1.30
2014,12,03,05,21,1.30
2014,12,03,05,22,1.20
2014,12,03,05,23,1.20
2014,12,03,05,24,1.20
2014,12,03,05,25,1.10
2014,12,03,05,26,1.10
2014,12,03,05,27,1.10
2014,12,03,05,28,1.10
2014,12,03,05,29,1.10
2014,12,03,05,30,1.00
2014,12,03,05,31,1.00
2014,12,03,05,32,1.00
2014,12,03,05,33,1.00
2014,12,03,05,34,1.00
2014,12,03,05,35,1.00
2014,12,03,05,36,1.10
2014,12,03,05,37,1.10
2014,12,03,05,38,1.10
2014,12,03,05,39,1.10
2014,12,03,05,40,1.10
2014,12,03,05,41,1.10
2014,12,03,05,42,1.10
2014,12,03,05,43,1.10
2014,12,03,05,44,1.10
2014,12,03,05,45,1.10
2014,12,03,05,46,1.10
2014,12,03,05,47,1.10
2014,12,03,05,48,1.10
2014,12,03,05,49,1.10
2014,12,03,05,50,1.10
2014,12,03,05,51,1.20
2014,12,03,05,52,1.20
2014,12,03,05,53,1.20
2014,12,03,05,54,1.20
2014,12,03,05,55,1.20
2014,12,03,05,56,1.20
2014,12,03,05,57,1.20
2014,12,03,05,58,1.20
2014,12,03,05,59,1.20
2014,12,03,06,00,1.20
2014,12,03,06,01,1.20
2014,12,03,06,02,1.10
2014,12,03,06,03,1.10
2014,12,03,06,04,1.10
2014,12,03,06,05,1.10
2014,12,03,06,06,1.10
2014,12,03,06,07,1.10
2014,12,03,06,08,1.00
2014,12,03,06,09,1.00
2014,12,03,06,10,1.00
2014,12,03,06,11,0.90
2014,12,03,06,12,0.90
2014,12,03,06,13,0.90
2014,12,03,06,14,0.90
2014,12,03,06,15,0.90
2014,12,03,06,16,0.90
2014,12,03,06,17,0.90
2014,12,03,06,18,0.90
2014,12,03,06,19,0.90
2014,12,03,06,20,0.90
2014,12,03,06,21,1.00
2014,12,03,06,22,1.00
2014,12,03,06,23,0.90
2014,12,03,06,24,1.00
2014,12,03,06,25,1.00
2014,12,03,06,26,1.00
2014,12,03,06,27,1.00
2014,12,03,06,28,1.00
2014,12,03,06,29,1.00
2014,12,03,06,30,1.00
2014,12,03,06,31,0.90
2014,12,03,06,32,0.90
2014,12,03,06,33,0.90
2014,12,03,06,34,1.00
2014,12,03,06,35,1.00
2014,12,03,06,36,1.00
2014,12,03,06,37,0.90
2014,12,03,06,38,0.90
2014,12,03,06,39,0.90
2014,12,03,06,40,0.90
2014,12,03,06,41,0.80
2014,12,03,06,42,0.80
2014,12,03,06,43,0.80
2014,12,03,06,44,0.80
2014,12,03,06,45,0.80
2014,12,03,06,46,0.80
2014,12,03,06,47,0.70
2014,12,03,06,48,0.70
2014,12,03,06,49,0.70
2014,12,03,06,50,0.70
2014,12,03,06,51,0.70
2014,12,03,06,52,0.70
2014,12,03,06,53,0.70
2014,12,03,06,54,0.70
2014,12,03,06,55,0.80
2014,12,03,06,56,0.80
2014,12,03,06,57,0.80
2014,12,03,06,58,0.80
2014,12,03,06,59,0.80
2014,12,03,07,00,0.80
2014,12,03,07,01,0.80
2014,12,03,07,02,0.80
2014,12,03,07,03,0.90
2014,12,03,07,04,1.00
2014,12,03,07,05,1.00
2014,12,03,07,06,1.00
2014,12,03,07,07,1.00
2014,12,03,07,08,1.00
2014,12,03,07,09,0.90
2014,12,03,07,10,0.90
2014,12,03,07,11,0.90
2014,12,03,07,12,0.90
2014,12,03,07,13,0.90
2014,12,03,07,14,1.00
2014,12,03,07,15,1.00
2014,12,03,07,16,1.10
2014,12,03,07,17,1.10
2014,12,03,07,18,1.20
2014,12,03,07,19,1.20
2014,12,03,07,20,1.20
2014,12,03,07,21,1.20
2014,12,03,07,22,1.20
2014,12,03,07,23,1.20
2014,12,03,07,24,1.20
2014,12,03,07,25,1.20
2014,12,03,07,26,1.20
2014,12,03,07,27,1.20
2014,12,03,07,28,1.20
2014,12,03,07,29,1.30
2014,12,03,07,30,1.30
2014,12,03,07,31,1.30
2014,12,03,07,32,1.30
2014,12,03,07,33,1.30
2014,12,03,07,34,1.30
2014,12,03,07,35,1.30
2014,12,03,07,36,1.30
2014,12,03,07,37,1.30
2014,12,03,07,38,1.30
2014,12,03,07,39,1.30
2014,12,03,07,40,1.30
2014,12,03,07,41,1.30
2014,12,03,07,42,1.30
2014,12,03,07,43,1.30
2014,12,03,07,44,1.30
2014,12,03,07,45,1.30
2014,12,03,07,46,1.30
2014,12,03,07,47,1.30
2014,12,03,07,48,1.30
2014,12,03,07,49,1.30
2014,12,03,07,50,1.30
2014,12,03,07,51,1.30
2014,12,03,07,52,1.30
2014,12,03,07,53,1.20
2014,12,03,07,54,1.20
2014,12,03,07,55,1.20
2014,12,03,07,56,1.20
2014,12,03,07,57,1.10
2014,12,03,07,58,1.10
2014,12,03,07,59,1.10
2014,12,03,08,00,1.10
2014,12,03,08,01,1.10
2014,12,03,08,02,1.10
2014,12,03,08,03,1.10
2014,12,03,08,04,1.10
2014,12,03,08,05,1.20
2014,12,03,08,06,1.20
2014,12,03,08,07,1.10
2014,12,03,08,08,1.10
2014,12,03,08,09,1.10
2014,12,03,08,10,1.10
2014,12,03,08,11,1.10
2014,12,03,08,12,1.10
2014,12,03,08,13,1.10
2014,12,03,08,14,1.10
2014,12,03,08,15,1.10
2014,12,03,08,16,1.10
2014,12,03,08,17,1.10
2014,12,03,08,18,1.10
2014,12,03,08,19,1.10
2014,12,03,08,20,1.10
2014,12,03,08,21,1.10
2014,12,03,08,22,1.10
2014,12,03,08,23,1.10
2014,12,03,08,24,1.20
2014,12,03,08,25,1.20
2014,12,03,08,26,1.30
2014,12,03,08,27,1.30
2014,12,03,08,28,1.30
2014,12,03,08,29,1.30
2014,12,03,08,30,1.30
2014,12,03,08,31,1.40
2014,12,03,08,32,1.30
2014,12,03,08,33,1.30
2014,12,03,08,34,1.30
2014,12,03,08,35,1.30
2014,12,03,08,36,1.40
2014,12,03,08,37,1.40
2014,12,03,08,38,1.40
2014,12,03,08,39,1.30
2014,12,03,08,40,1.30
2014,12,03,08,41,1.30
2014,12,03,08,42,1.40
2014,12,03,08,43,1.40
2014,12,03,08,44,1.40
2014,12,03,08,45,1.40
2014,12,03,08,46,1.50
2014,12,03,08,47,1.50
2014,12,03,08,48,1.50
2014,12,03,08,49,1.50
2014,12,03,08,50,1.50
2014,12,03,08,51,1.50
2014,12,03,08,52,1.50
2014,12,03,08,53,1.50
2014,12,03,08,54,1.50
2014,12,03,08,55,1.40
2014,12,03,08,56,1.40
2014,12,03,08,57,1.40
2014,12,03,08,58,1.40
2014,12,03,08,59,1.40
2014,12,03,09,00,1.40
2014,12,03,09,01,1.40
2014,12,03,09,02,1.40
2014,12,03,09,03,1.40
2014,12,03,09,04,1.40
2014,12,03,09,05,1.40
2014,12,03,09,06,1.40
2014,12,03,09,07,1.40
2014,12,03,09,08,1.50
2014,12,03,09,09,1.50
2014,12,03,09,10,1.60
2014,12,03,09,11,1.60
2014,12,03,09,12,1.60
2014,12,03,09,13,1.70
2014,12,03,09,14,1.70
2014,12,03,09,15,1.80
2014,12,03,09,16,1.80
2014,12,03,09,17,1.90
2014,12,03,09,18,1.90
2014,12,03,09,19,2.00
2014,12,03,09,20,2.10
2014,12,03,09,21,2.10
2014,12,03,09,22,2.20
2014,12,03,09,23,2.20
2014,12,03,09,24,2.30
2014,12,03,09,25,2.30
2014,12,03,09,26,2.30
2014,12,03,09,27,2.40
2014,12,03,09,28,2.50
2014,12,03,09,29,2.50
2014,12,03,09,30,2.60
2014,12,03,09,31,2.70
2014,12,03,09,32,2.70
2014,12,03,09,33,2.80
2014,12,03,09,34,2.80
2014,12,03,09,35,2.80
2014,12,03,09,36,2.90
2014,12,03,09,37,2.90
2014,12,03,09,38,2.90
2014,12,03,09,39,2.90
2014,12,03,09,40,2.90
2014,12,03,09,41,3.00
2014,12,03,09,42,3.00
2014,12,03,09,43,3.00
2014,12,03,09,44,3.00
2014,12,03,09,45,3.10
2014,12,03,09,46,3.20
2014,12,03,09,47,3.20
2014,12,03,09,48,3.20
2014,12,03,09,49,3.30
2014,12,03,09,50,3.30
2014,12,03,09,51,3.40
2014,12,03,09,52,3.40
2014,12,03,09,53,3.50
2014,12,03,09,54,3.50
2014,12,03,09,55,3.60
2014,12,03,09,56,3.60
2014,12,03,09,57,3.60
2014,12,03,09,58,3.70
2014,12,03,09,59,3.70
2014,12,03,10,00,3.70
2014,12,03,10,01,3.70
2014,12,03,10,02,3.80
2014,12,03,10,03,3.80
2014,12,03,10,04,3.80
2014,12,03,10,05,3.80
2014,12,03,10,06,3.80
2014,12,03,10,07,3.90
2014,12,03,10,08,3.90
2014,12,03,10,09,3.90
2014,12,03,10,10,3.90
2014,12,03,10,11,3.90
2014,12,03,10,12,3.90
2014,12,03,10,13,3.90
2014,12,03,10,14,4.00
2014,12,03,10,15,4.00
2014,12,03,10,16,4.00
2014,12,03,10,17,4.00
2014,12,03,10,18,4.10
2014,12,03,10,19,4.10
2014,12,03,10,20,4.10
2014,12,03,10,21,4.10
2014,12,03,10,22,4.10
2014,12,03,10,23,4.10
2014,12,03,10,24,4.10
2014,12,03,10,25,4.10
2014,12,03,10,26,4.10
2014,12,03,10,27,4.10
2014,12,03,10,28,4.10
2014,12,03,10,29,4.20
2014,12,03,10,30,4.20
2014,12,03,10,31,4.20
2014,12,03,10,32,4.20
2014,12,03,10,33,4.20
2014,12,03,10,34,4.20
2014,12,03,10,35,4.30
2014,12,03,10,36,4.30
2014,12,03,10,37,4.30
2014,12,03,10,38,4.30
2014,12,03,10,39,4.30
2014,12,03,10,40,4.40
2014,12,03,10,41,4.40
2014,12,03,10,42,4.40
2014,12,03,10,43,4.40
2014,12,03,10,44,4.40
2014,12,03,10,45,4.40
2014,12,03,10,46,4.40
2014,12,03,10,47,4.40
2014,12,03,10,48,4.40
2014,12,03,10,49,4.40
2014,12,03,10,50,4.50
2014,12,03,10,51,4.40
2014,12,03,10,52,4.50
2014,12,03,10,53,4.50
2014,12,03,10,54,4.50
2014,12,03,10,55,4.50
2014,12,03,10,56,4.50
2014,12,03,10,57,4.50
2014,12,03,10,58,4.50
2014,12,03,10,59,4.50
2014,12,03,11,00,4.50
2014,12,03,11,01,4.50
2014,12,03,11,02,4.40
2014,12,03,11,03,4.50
2014,12,03,11,04,4.50
2014,12,03,11,05,4.50
2014,12,03,11,06,4.50
2014,12,03,11,07,4.50
2014,12,03,11,08,4.60
2014,12,03,11,09,4.60
2014,12,03,11,10,4.60
2014,12,03,11,11,4.60
2014,12,03,11,12,4.60
2014,12,03,11,13,4.60
2014,12,03,11,14,4.60
2014,12,03,11,15,4.60
2014,12,03,11,16,4.60
2014,12,03,11,17,4.60
2014,12,03,11,18,4.60
2014,12,03,11,19,4.70
2014,12,03,11,20,4.70
2014,12,03,11,21,4.70
2014,12,03,11,22,4.70
2014,12,03,11,23,4.70
2014,12,03,11,24,4.70
2014,12,03,11,25,4.70
2014,12,03,11,26,4.70
2014,12,03,11,27,4.80
2014,12,03,11,28,4.80
2014,12,03,11,29,4.80
2014,12,03,11,30,4.80
2014,12,03,11,31,4.80
2014,12,03,11,32,4.80
2014,12,03,11,33,4.80
2014,12,03,11,34,4.90
2014,12,03,11,35,4.90
2014,12,03,11,36,4.90
2014,12,03,11,37,4.90
2014,12,03,11,38,4.80
2014,12,03,11,39,4.80
2014,12,03,11,40,4.90
2014,12,03,11,41,4.90
2014,12,03,11,42,4.90
2014,12,03,11,43,4.90
2014,12,03,11,44,4.90
2014,12,03,11,45,4.90
2014,12,03,11,46,4.90
2014,12,03,11,47,4.90
2014,12,03,11,48,4.90
2014,12,03,11,49,4.90
2014,12,03,11,50,4.90
2014,12,03,11,51,4.90
2014,12,03,11,52,4.90
2014,12,03,11,53,4.90
2014,12,03,11,54,5.00
2014,12,03,11,55,5.00
2014,12,03,11,56,5.00
2014,12,03,11,57,5.00
2014,12,03,11,58,4.90
2014,12,03,11,59,4.90
2014,12,03,12,00,4.90
2014,12,03,12,01,4.90
2014,12,03,12,02,4.90
2014,12,03,12,03,4.90
2014,12,03,12,04,5.00
2014,12,03,12,05,5.00
2014,12,03,12,06,5.00
2014,12,03,12,07,5.10
2014,12,03,12,08,5.10
2014,12,03,12,09,5.10
2014,12,03,12,10,5.10
2014,12,03,12,11,5.10
2014,12,03,12,12,5.10
2014,12,03,12,13,5.10
2014,12,03,12,14,5.10
2014,12,03,12,15,5.10
2014,12,03,12,16,5.20
2014,12,03,12,17,5.20
2014,12,03,12,18,5.20
2014,12,03,12,19,5.20
2014,12,03,12,20,5.20
2014,12,03,12,21,5.30
2014,12,03,12,22,5.30
2014,12,03,12,23,5.30
2014,12,03,12,24,5.30
2014,12,03,12,25,5.40
2014,12,03,12,26,5.40
2014,12,03,12,27,5.40
2014,12,03,12,28,5.40
2014,12,03,12,29,5.40
2014,12,03,12,30,5.40
2014,12,03,12,31,5.40
2014,12,03,12,32,5.40
2014,12,03,12,33,5.40
2014,12,03,12,34,5.40
2014,12,03,12,35,5.40
2014,12,03,12,36,5.50
2014,12,03,12,37,5.50
2014,12,03,12,38,5.50
2014,12,03,12,39,5.50
2014,12,03,12,40,5.50
2014,12,03,12,41,5.50
2014,12,03,12,42,5.50
2014,12,03,12,43,5.60
2014,12,03,12,44,5.60
2014,12,03,12,45,5.50
2014,12,03,12,46,5.50
2014,12,03,12,47,5.50
2014,12,03,12,48,5.50
2014,12,03,12,49,5.50
2014,12,03,12,50,5.50
2014,12,03,12,51,5.50
2014,12,03,12,52,5.50
2014,12,03,12,53,5.50
2014,12,03,12,54,5.60
2014,12,03,12,55,5.60
2014,12,03,12,56,5.60
2014,12,03,12,57,5.60
2014,12,03,12,58,5.60
2014,12,03,12,59,5.60
2014,12,03,13,00,5.60
2014,12,03,13,01,5.60
2014,12,03,13,02,5.60
2014,12,03,13,03,5.60
2014,12,03,13,04,5.60
2014,12,03,13,05,5.60
2014,12,03,13,06,5.60
2014,12,03,13,07,5.70
2014,12,03,13,08,5.70
2014,12,03,13,09,5.70
2014,12,03,13,10,5.70
2014,12,03,13,11,5.70
2014,12,03,13,12,5.70
2014,12,03,13,13,5.70
2014,12,03,13,14,5.70
2014,12,03,13,15,5.60
2014,12,03,13,16,5.60
2014,12,03,13,17,5.60
2014,12,03,13,18,5.60
2014,12,03,13,19,5.60
2014,12,03,13,20,5.60
2014,12,03,13,21,5.70
2014,12,03,13,22,5.70
2014,12,03,13,23,5.70
2014,12,03,13,24,5.70
2014,12,03,13,25,5.70
2014,12,03,13,26,5.80
2014,12,03,13,27,5.80
2014,12,03,13,28,5.80
2014,12,03,13,29,5.80
2014,12,03,13,30,5.80
2014,12,03,13,31,5.80
2014,12,03,13,32,5.80
2014,12,03,13,33,5.80
2014,12,03,13,34,5.80
2014,12,03,13,35,5.80
2014,12,03,13,36,5.80
2014,12,03,13,37,5.80
2014,12,03,13,38,5.80
2014,12,03,13,39,5.80
2014,12,03,13,40,5.90
2014,12,03,13,41,5.90
2014,12,03,13,42,5.90
2014,12,03,13,43,5.90
2014,12,03,13,44,5.90
2014,12,03,13,45,5.90
2014,12,03,13,46,5.90
2014,12,03,13,47,5.90
2014,12,03,13,48,5.90
2014,12,03,13,49,5.90
2014,12,03,13,50,5.90
2014,12,03,13,51,5.90
2014,12,03,13,52,6.00
2014,12,03,13,53,6.00
2014,12,03,13,54,6.00
2014,12,03,13,55,6.00
2014,12,03,13,56,6.10
2014,12,03,13,57,6.10
2014,12,03,13,58,6.10
2014,12,03,13,59,6.10
2014,12,03,14,00,6.00
2014,12,03,14,01,6.00
2014,12,03,14,02,6.00
2014,12,03,14,03,6.00
2014,12,03,14,04,6.00
2014,12,03,14,05,6.10
2014,12,03,14,06,6.10
2014,12,03,14,07,6.10
2014,12,03,14,08,6.10
2014,12,03,14,09,6.10
2014,12,03,14,10,6.10
2014,12,03,14,11,6.10
2014,12,03,14,12,6.10
2014,12,03,14,13,6.10
2014,12,03,14,14,6.10
2014,12,03,14,15,6.10
2014,12,03,14,16,6.10
2014,12,03,14,17,6.10
2014,12,03,14,18,6.10
2014,12,03,14,19,6.20
2014,12,03,14,20,6.20
2014,12,03,14,21,6.20
2014,12,03,14,22,6.20
2014,12,03,14,23,6.20
2014,12,03,14,24,6.20
2014,12,03,14,25,6.10
2014,12,03,14,26,6.10
2014,12,03,14,27,6.10
2014,12,03,14,28,6.10
2014,12,03,14,29,6.10
2014,12,03,14,30,6.10
2014,12,03,14,31,6.10
2014,12,03,14,32,6.20
2014,12,03,14,33,6.20
2014,12,03,14,34,6.20
2014,12,03,14,35,6.20
2014,12,03,14,36,6.30
2014,12,03,14,37,6.20
2014,12,03,14,38,6.20
2014,12,03,14,39,6.20
2014,12,03,14,40,6.20
2014,12,03,14,41,6.20
2014,12,03,14,42,6.10
2014,12,03,14,43,6.10
2014,12,03,14,44,6.10
2014,12,03,14,45,6.00
2014,12,03,14,46,6.00
2014,12,03,14,47,6.00
2014,12,03,14,48,6.00
2014,12,03,14,49,6.00
2014,12,03,14,50,6.10
2014,12,03,14,51,6.10
2014,12,03,14,52,6.10
2014,12,03,14,53,6.10
2014,12,03,14,54,6.10
2014,12,03,14,55,6.10
2014,12,03,14,56,6.10
2014,12,03,14,57,6.10
2014,12,03,14,58,6.10
2014,12,03,14,59,6.10
2014,12,03,15,00,6.10
2014,12,03,15,01,6.00
2014,12,03,15,02,6.00
2014,12,03,15,03,6.00
2014,12,03,15,04,6.00
2014,12,03,15,05,6.00
2014,12,03,15,06,6.00
2014,12,03,15,07,5.90
2014,12,03,15,08,6.00
2014,12,03,15,09,6.00
2014,12,03,15,10,5.90
2014,12,03,15,11,6.00
2014,12,03,15,12,6.00
2014,12,03,15,13,6.00
2014,12,03,15,14,6.00
2014,12,03,15,15,6.00
2014,12,03,15,16,6.00
2014,12,03,15,17,6.00
2014,12,03,15,18,6.00
2014,12,03,15,19,6.00
2014,12,03,15,20,6.00
2014,12,03,15,21,6.00
2014,12,03,15,22,6.00
2014,12,03,15,23,6.00
2014,12,03,15,24,5.90
2014,12,03,15,25,5.90
2014,12,03,15,26,5.90
2014,12,03,15,27,5.90
2014,12,03,15,28,5.90
2014,12,03,15,29,5.90
2014,12,03,15,30,5.90
2014,12,03,15,31,5.80
2014,12,03,15,32,5.80
2014,12,03,15,33,5.80
2014,12,03,15,34,5.80
2014,12,03,15,35,5.80
2014,12,03,15,36,5.80
2014,12,03,15,37,5.70
2014,12,03,15,38,5.70
2014,12,03,15,39,5.70
2014,12,03,15,40,5.70
2014,12,03,15,41,5.70
2014,12,03,15,42,5.70
2014,12,03,15,43,5.60
2014,12,03,15,44,5.60
2014,12,03,15,45,5.60
2014,12,03,15,46,5.60
2014,12,03,15,47,5.60
2014,12,03,15,48,5.60
2014,12,03,15,49,5.50
2014,12,03,15,50,5.50
2014,12,03,15,51,5.50
2014,12,03,15,52,5.50
2014,12,03,15,53,5.40
2014,12,03,15,54,5.40
2014,12,03,15,55,5.40
2014,12,03,15,56,5.40
2014,12,03,15,57,5.40
2014,12,03,15,58,5.40
2014,12,03,15,59,5.30
2014,12,03,16,00,5.30
2014,12,03,16,01,5.30
2014,12,03,16,02,5.30
2014,12,03,16,03,5.30
2014,12,03,16,04,5.20
2014,12,03,16,05,5.20
2014,12,03,16,06,5.20
2014,12,03,16,07,5.20
2014,12,03,16,08,5.10
2014,12,03,16,09,5.10
2014,12,03,16,10,5.00
2014,12,03,16,11,5.00
2014,12,03,16,12,5.00
2014,12,03,16,13,4.90
2014,12,03,16,14,4.90
2014,12,03,16,15,4.90
2014,12,03,16,16,4.80
2014,12,03,16,17,4.80
2014,12,03,16,18,4.80
2014,12,03,16,19,4.80
2014,12,03,16,20,4.80
2014,12,03,16,21,4.70
2014,12,03,16,22,4.70
2014,12,03,16,23,4.70
2014,12,03,16,24,4.70
2014,12,03,16,25,4.60
2014,12,03,16,26,4.60
2014,12,03,16,27,4.60
2014,12,03,16,28,4.50
2014,12,03,16,29,4.50
2014,12,03,16,30,4.40
2014,12,03,16,31,4.40
2014,12,03,16,32,4.30
2014,12,03,16,33,4.30
2014,12,03,16,34,4.20
2014,12,03,16,35,4.20
2014,12,03,16,36,4.10
2014,12,03,16,37,4.10
2014,12,03,16,38,4.00
2014,12,03,16,39,4.00
2014,12,03,16,40,3.90
2014,12,03,16,41,3.90
2014,12,03,16,42,3.90
2014,12,03,16,43,3.80
2014,12,03,16,44,3.80
2014,12,03,16,45,3.80
2014,12,03,16,46,3.80
2014,12,03,16,47,3.70
2014,12,03,16,48,3.70
2014,12,03,16,49,3.70
2014,12,03,16,50,3.70
2014,12,03,16,51,3.60
2014,12,03,16,52,3.60
2014,12,03,16,53,3.60
2014,12,03,16,54,3.60
2014,12,03,16,55,3.50
2014,12,03,16,56,3.50
2014,12,03,16,57,3.50
2014,12,03,16,58,3.40
2014,12,03,16,59,3.40
2014,12,03,17,00,3.40
2014,12,03,17,01,3.40
2014,12,03,17,02,3.40
2014,12,03,17,03,3.40
2014,12,03,17,04,3.30
2014,12,03,17,05,3.40
2014,12,03,17,06,3.30
2014,12,03,17,07,3.30
2014,12,03,17,08,3.30
2014,12,03,17,09,3.30
2014,12,03,17,10,3.30
2014,12,03,17,11,3.20
2014,12,03,17,12,3.20
2014,12,03,17,13,3.20
2014,12,03,17,14,3.20
2014,12,03,17,15,3.10
2014,12,03,17,16,3.10
2014,12,03,17,17,3.00
2014,12,03,17,18,3.00
2014,12,03,17,19,3.00
2014,12,03,17,20,3.00
2014,12,03,17,21,3.00
2014,12,03,17,22,2.90
2014,12,03,17,23,2.90
2014,12,03,17,24,2.90
2014,12,03,17,25,2.90
2014,12,03,17,26,2.90
2014,12,03,17,27,2.90
2014,12,03,17,28,2.90
2014,12,03,17,29,2.90
2014,12,03,17,30,2.90
2014,12,03,17,31,2.90
2014,12,03,17,32,2.90
2014,12,03,17,33,2.90
2014,12,03,17,34,2.90
2014,12,03,17,35,2.90
2014,12,03,17,36,2.90
2014,12,03,17,37,2.90
2014,12,03,17,38,3.00
2014,12,03,17,39,3.00
2014,12,03,17,40,3.10
2014,12,03,17,41,3.10
2014,12,03,17,42,3.10
2014,12,03,17,43,3.10
2014,12,03,17,44,3.10
2014,12,03,17,45,3.10
2014,12,03,17,46,3.10
2014,12,03,17,47,3.10
2014,12,03,17,48,3.10
2014,12,03,17,49,3.10
2014,12,03,17,50,3.10
2014,12,03,17,51,3.10
2014,12,03,17,52,3.00
2014,12,03,17,53,3.00
2014,12,03,17,54,3.00
2014,12,03,17,55,3.00
2014,12,03,17,56,3.00
2014,12,03,17,57,3.00
2014,12,03,17,58,3.00
2014,12,03,17,59,3.00
2014,12,03,18,00,3.00
2014,12,03,18,01,3.10
2014,12,03,18,02,3.10
2014,12,03,18,03,3.10
2014,12,03,18,04,3.10
2014,12,03,18,05,3.10
2014,12,03,18,06,3.10